Retour au catalogue

STARLINK-30171

ActifCommunicationsVLEO
NORAD 57469·PAYLOAD·🇺🇸 United States

Lancé Jul 28, 2023 depuis Cape Canaveral Space Force Station

Loading…

Prochains Passages (prochaines 24 heures)

TLE

FraisSource: CelesTrak SupGP

Époque: Sep 15, 2026, 01:52 UTC

1 57469C 23107N   26258.07826389 -.00001669  00000+0 -60447-4 0  2586
2 57469  43.0026 349.8858 0001408 255.5540  58.7813 15.27575770    11

Suivez STARLINK-30171 en temps réel avec AllMySat

Download on the App Store